Regional Weather Roundup
Issued by NWS

Home | Current Version | Previous Version | Text Only | Print | Product List | Glossary On
Versions: 1 2 3 4 5 6 7 8 9 10 11 12 13 14 15 16 17 18 19 20 21 22 23 24 25 26 27 28 29 30 31 32 33 34 35 36 37 38 39 40 41 42 43 44 45 46 47 48 49 50
000
ASUS43 KLSX 170407
RWRMO

WEATHER SUMMARY FOR MISSOURI
NATIONAL WEATHER SERVICE SPRINGFIELD MO
1000 PM CST THU NOV 16 2017

NOTE: "FAIR" INDICATES FEW OR NO CLOUDS BELOW 12,000 FEET WITH NO
       SIGNIFICANT WEATHER AND/OR OBSTRUCTIONS TO VISIBILITY.
       CURRENT SKY AND/OR WEATHER CONDITIONS ARE NOT AVAILABLE FOR
       CHILLICOTHE AND FARMINGTON.

MOZ001>031-035>038-043-044-053-054-170500-
...NORTHERN AND WESTERN MISSOURI...

CITY           SKY/WX    TMP DP  RH WIND       PRES   REMARKS
KANSAS CTY INT CLOUDY    44  31  60 SE14      29.98F
KANSAS C DTWN  CLOUDY    49  30  48 E8        29.98F
LEE`S SUMMIT   CLOUDY    47  30  51 SE15G21   30.00F
ST JOSEPH      CLOUDY    43  30  60 SE8       29.98F
CHILLICOTHE      N/A     39  30  70 SE8       30.05F
KIRKSVILLE     CLOUDY    35  31  85 SE13      30.08F WCI  26

$$
MOZ066>068-077>081-088>096-101>105-170500-
...SOUTHWEST MISSOURI...

CITY           SKY/WX    TMP DP  RH WIND       PRES   REMARKS
SPRINGFIELD    CLOUDY    52  37  56 S18G26    30.05F
JOPLIN         CLOUDY    55  43  63 SE12      30.01F
BRANSON        CLOUDY    50  39  66 SE3       30.10S

$$
MOZ032>034-039>042-045>050-055>058-069>072-170500-
...CENTRAL MISSOURI...

CITY           SKY/WX    TMP DP  RH WIND       PRES   REMARKS
COLUMBIA       CLEAR     38  29  70 SE10      30.09F
JEFFERSON CITY CLEAR     39  29  67 E9        30.11F
ROLLA          CLOUDY    36  29  75 SE9       30.11F WCI  29
SEDALIA        CLOUDY    43  32  65 SE12      30.06F
WHITEMAN AFB   CLOUDY    44  29  56 SE8       30.00F
WARRENSBURG    CLOUDY    45  30  57 E7        30.03F
OSAGE BEACH    CLOUDY    43  29  57 E6        30.08F

$$
MOZ051-052-059>065-170500-
...EAST CENTRAL MISSOURI...

CITY           SKY/WX    TMP DP  RH WIND       PRES   REMARKS
ST LOUIS INTL  PTCLDY    37  32  82 SE9       30.19F
SPIRIT OF STL  CLEAR     37  32  82 E5        30.18F
ST CHARLES     CLEAR     30  27  88 E7        30.19F WCI  23

$$
MOZ072>076-082>087-097>100-106>115-170500-
...SOUTH CENTRAL AND SOUTHEAST MISSOURI...

CITY           SKY/WX    TMP DP  RH WIND       PRES   REMARKS
CAPE GIRARDEAU CLEAR     35  31  85 E7        30.21F WCI  29
FARMINGTON     CLEAR     32  29  88 E5        30.18F WCI  27
POPLAR BLUFF   CLEAR     37  35  92 CALM      30.20S
WEST PLAINS    CLEAR     44  36  73 SE9       30.14F

$$



USA.gov is the U.S. government's official web portal to all federal, state and local government web resources and services.